Weather in Dogondoutchi

Niger     13°38′09″N   4°01′51″E
temp.,
°C
wind,
m/s
gust,
m/s
humid.,
%
clouds,
%
prec.,
mm/h
press.,
hPa
HPBL,
m
16 june, wed
wed1601:00+33ssw7123338 0.0 1008470
04:00+31ssw81248100 0.0 1008658
07:00+29ssw71253100 0.0 1009567
10:00+33ssw91043100 0.0 10111089
13:00+37wsw8833100 0.0 10091777
16:00+38sw5426100 0.0 10072876
19:00+38wsw4524100 0.0 10061093
22:00+36s4627100 0.0 1007142
17 june, thu
thu1701:00+34sse59335 0.0 1009357
04:00+30s8134973 0.0 1009568
07:00+28sw611565 0.0 1011562
10:00+33sw893812 0.0 1012992
13:00+37sw66285 0.0 10111849
16:00+39sw432317 0.0 10082889
19:00+38s22235 0.0 10071206
22:00+35s69335 0.0 1011527
18 june, fri
fri1801:00+32ssw57385 1.1 1012535
04:00+31ssw81143100 0.0 1010845
07:00+29ssw9125018 0.0 1012714
10:00+32s9104445 0.0 1013870
13:00+36ssw76315 0.0 10111441
16:00+38sw42255 0.0 10092595
19:00+38wsw32250 0.0 10092472
22:00+36sw35294 0.0 1010165
19 june, sat
sat1901:00+32sw23382 0.9 1012150
04:00+30sw711455 0.0 1010447
07:00+30sw5104844 0.0 1011454
10:00+34w673914 0.0 10121224
13:00+38wsw442886 0.0 10102409
16:00+40w23225 0.0 10073180
19:00+39nw12210 0.0 10072813
22:00+37sw572884 0.0 1009313
20 june, sun
sun2001:00+35s101235100 0.0 1010999
04:00+31ssw81151100 0.0 10111045
07:00+29s91258100 1.9 1012764
10:00+32ssw91051100 0.0 10131079
13:00+35sw8841100 0.0 10121387
16:00+36wsw773599 0.0 10081917
19:00+35wsw56367 0.0 10081030
22:00+34ssw453927 0.0 1010419